Hulett, WY

3:31 AM MST on December 10, 2019 (GMT -0700)
Hulett

Weather History for KW43 - June, 2019

Change the Weather History Date:

Monday, June 3, 2019

  Actual Average (WUND) Record (WUND)
Temperature  
Mean Temperature 70 °F -  
Max Temperature 80 °F - - (-1)
Min Temperature 60 °F - - (-1)
Cooling Degree Days 5    
Growing Degree Days 20 (Base 50)    
Moisture  
Dew Point 48 °F    
Average Humidity 48    
Maximum Humidity 68    
Minimum Humidity 26    
Precipitation  
Precipitation 0.12 in - - ()
Sea Level Pressure  
Sea Level Pressure 29.86 in    
Wind  
Wind Speed 7 mph (SE)    
Max Wind Speed 15 mph    
Max Gust Speed 41 mph    
Visibility 10 miles    
Events Rain , Thunderstorm    
Averages and records for this station are not official NWS values.
T = Trace of Precipitation, MM = Missing Value Source: NWS Daily Summary

Daily Weather History Graph

Daily Weather History Graph

Search for Another Location

Airport or City:

Astronomy

Jun. 03, 2019 Rise Set
Actual Time 5:15 AM MDT 8:38 PM MDT
Civil Twilight 4:39 AM MDT 9:14 PM MDT
Nautical Twilight 3:51 AM MDT 10:01 PM MDT
Astronomical Twilight 2:52 AM MDT 11:01 PM MDT
Moon 5:40 AM MDT (6/3) 9:04 PM MDT (6/3)
Length of Visible Light 16h 35m
Length of Day
15h 22m
New Moon, 0% of the Moon is Illuminated
Jun 3
New Moon
Jun 10
First Quarter
Jun 17
Full
Jun 25
Last Quarter
Jul 2
New

Hourly Weather History & Observations

Time (MDT) Temp. Dew Point Humidity Pressure Visibility Wind Dir Wind Speed Gust Speed Precip Events Conditions
5:35 PM 80.6 °F 42.8 °F 26% 29.83 in 10.0 mi SW 3.5 mph - N/A   Unknown
5:55 PM - - N/A% - - North - - N/A   Unknown
6:15 PM 77.0 °F 48.2 °F 36% 29.83 in 10.0 mi SE 5.8 mph - N/A   Scattered Clouds
6:35 PM 78.8 °F 53.6 °F 42% 29.83 in 10.0 mi SE 6.9 mph - N/A   Scattered Clouds
6:55 PM 78.8 °F 51.8 °F 39% 29.83 in 10.0 mi SE 4.6 mph - N/A   Scattered Clouds
7:15 PM 73.4 °F 51.8 °F 47% 29.82 in 10.0 mi South 5.8 mph - N/A   Mostly Cloudy
7:35 PM 73.4 °F 50.0 °F 44% 29.84 in 10.0 mi NNW 11.5 mph 18.4 mph N/A   Mostly Cloudy
7:55 PM 71.6 °F 50.0 °F 46% 29.85 in 10.0 mi Calm Calm - N/A Thunderstorm Thunderstorm
8:15 PM 69.8 °F 51.8 °F 53% 29.86 in 10.0 mi West 4.6 mph - N/A   Mostly Cloudy
8:35 PM 66.2 °F 44.6 °F 46% 29.90 in 10.0 mi WNW 15.0 mph 27.6 mph 0.08 in Rain , Thunderstorm Heavy Thunderstorms and Rain
8:55 PM 66.2 °F 44.6 °F 46% 29.87 in 10.0 mi North 9.2 mph - 0.12 in Rain , Thunderstorm Light Thunderstorms and Rain
9:15 PM 68.0 °F 51.8 °F 56% 29.86 in 10.0 mi ENE 8.1 mph - N/A   Scattered Clouds
9:35 PM 64.4 °F 48.2 °F 56% 29.87 in 10.0 mi East 5.8 mph - N/A   Clear
9:55 PM 60.8 °F 50.0 °F 68% 29.87 in 10.0 mi ESE 8.1 mph - N/A   Clear
10:15 PM 60.8 °F 50.0 °F 68% 29.88 in 10.0 mi South 6.9 mph - N/A   Scattered Clouds
10:35 PM 60.8 °F 48.2 °F 63% 29.87 in 10.0 mi South 8.1 mph - N/A   Mostly Cloudy
10:55 PM 60.8 °F 48.2 °F 63% 29.89 in 10.0 mi West 5.8 mph 16.1 mph N/A   Overcast
11:15 PM 66.2 °F 46.4 °F 49% 29.88 in 10.0 mi NNW 12.7 mph - N/A Rain Light Rain
11:35 PM 71.6 °F 37.4 °F 29% 29.87 in 10.0 mi ENE 15.0 mph 41.4 mph N/A Rain Light Rain
11:55 PM 68.0 °F 41.0 °F 37% 29.86 in 10.0 mi SSE 5.8 mph 9.2 mph N/A   Scattered Clouds